Location: 10033 Water Well
(34.0865°N, 106.8959°W)
Time: 21:26:38
(UTC+00:00)

Cosmos 1833 Rocket - Pass Details

Date: 13 January 2026
Orbit: 831 x 839 km, 71.0° (Epoch: 11 February)

Event Time Altitude Azimuth Distance (km) Brightness Sun altitude
Rises 01:45:08 0° 172° (S) 3,370 5.9 -17.6°
Reaches altitude 10° 01:47:50 10° 161° (SSE) 2,441 5.0 -18.2°
Enters shadow 01:52:22 29° 107° (ESE) 1,488 3.5 -19.1°
